Year,Month,Day,Hour,Minute,Value (Times are PST for temperature in C)
2022,10,02,00,00,19.80
2022,10,02,00,01,19.80
2022,10,02,00,02,19.80
2022,10,02,00,03,19.80
2022,10,02,00,04,19.80
2022,10,02,00,05,19.80
2022,10,02,00,06,19.80
2022,10,02,00,07,19.80
2022,10,02,00,08,19.80
2022,10,02,00,09,19.80
2022,10,02,00,10,19.80
2022,10,02,00,11,19.80
2022,10,02,00,12,19.80
2022,10,02,00,13,19.80
2022,10,02,00,14,19.80
2022,10,02,00,15,19.70
2022,10,02,00,16,19.70
2022,10,02,00,17,19.70
2022,10,02,00,18,19.70
2022,10,02,00,19,19.70
2022,10,02,00,20,19.70
2022,10,02,00,21,19.70
2022,10,02,00,22,19.70
2022,10,02,00,23,19.70
2022,10,02,00,24,19.70
2022,10,02,00,25,19.70
2022,10,02,00,26,19.70
2022,10,02,00,27,19.60
2022,10,02,00,28,19.60
2022,10,02,00,29,19.60
2022,10,02,00,30,19.70
2022,10,02,00,31,19.60
2022,10,02,00,32,19.60
2022,10,02,00,33,19.60
2022,10,02,00,34,19.60
2022,10,02,00,35,19.60
2022,10,02,00,36,19.60
2022,10,02,00,37,19.60
2022,10,02,00,38,19.60
2022,10,02,00,39,19.60
2022,10,02,00,40,19.60
2022,10,02,00,41,19.60
2022,10,02,00,42,19.60
2022,10,02,00,43,19.60
2022,10,02,00,44,19.60
2022,10,02,00,45,19.60
2022,10,02,00,46,19.60
2022,10,02,00,47,19.60
2022,10,02,00,48,19.60
2022,10,02,00,49,19.60
2022,10,02,00,50,19.60
2022,10,02,00,51,19.60
2022,10,02,00,52,19.60
2022,10,02,00,53,19.60
2022,10,02,00,54,19.50
2022,10,02,00,55,19.50
2022,10,02,00,56,19.50
2022,10,02,00,57,19.40
2022,10,02,00,58,19.40
2022,10,02,00,59,19.40
2022,10,02,01,00,19.40
2022,10,02,01,01,19.30
2022,10,02,01,02,19.30
2022,10,02,01,03,19.30
2022,10,02,01,04,19.30
2022,10,02,01,05,19.20
2022,10,02,01,06,19.20
2022,10,02,01,07,19.20
2022,10,02,01,08,19.20
2022,10,02,01,09,19.20
2022,10,02,01,10,19.20
2022,10,02,01,11,19.20
2022,10,02,01,12,19.20
2022,10,02,01,13,19.20
2022,10,02,01,14,19.20
2022,10,02,01,15,19.20
2022,10,02,01,16,19.20
2022,10,02,01,17,19.20
2022,10,02,01,18,19.20
2022,10,02,01,19,19.10
2022,10,02,01,20,19.10
2022,10,02,01,21,19.10
2022,10,02,01,22,19.10
2022,10,02,01,23,19.10
2022,10,02,01,24,19.10
2022,10,02,01,25,19.10
2022,10,02,01,26,19.10
2022,10,02,01,27,19.10
2022,10,02,01,28,19.00
2022,10,02,01,29,19.00
2022,10,02,01,30,19.00
2022,10,02,01,31,18.90
2022,10,02,01,32,18.90
2022,10,02,01,33,18.90
2022,10,02,01,34,18.90
2022,10,02,01,35,18.90
2022,10,02,01,36,18.90
2022,10,02,01,37,18.90
2022,10,02,01,38,18.80
2022,10,02,01,39,18.80
2022,10,02,01,40,18.80
2022,10,02,01,41,18.80
2022,10,02,01,42,18.80
2022,10,02,01,43,18.80
2022,10,02,01,44,18.80
2022,10,02,01,45,18.80
2022,10,02,01,46,18.80
2022,10,02,01,47,18.80
2022,10,02,01,48,18.80
2022,10,02,01,49,18.80
2022,10,02,01,50,18.80
2022,10,02,01,51,18.80
2022,10,02,01,52,18.80
2022,10,02,01,53,18.80
2022,10,02,01,54,18.80
2022,10,02,01,55,18.80
2022,10,02,01,56,18.80
2022,10,02,01,57,18.80
2022,10,02,01,58,18.80
2022,10,02,01,59,18.80
2022,10,02,02,00,18.70
2022,10,02,02,01,18.80
2022,10,02,02,02,18.80
2022,10,02,02,03,18.80
2022,10,02,02,04,18.80
2022,10,02,02,05,18.80
2022,10,02,02,06,18.80
2022,10,02,02,07,18.80
2022,10,02,02,08,18.80
2022,10,02,02,09,18.80
2022,10,02,02,10,18.80
2022,10,02,02,11,18.80
2022,10,02,02,12,18.80
2022,10,02,02,13,18.80
2022,10,02,02,14,18.80
2022,10,02,02,15,18.80
2022,10,02,02,16,18.80
2022,10,02,02,17,18.80
2022,10,02,02,18,18.80
2022,10,02,02,19,18.90
2022,10,02,02,20,18.90
2022,10,02,02,21,18.90
2022,10,02,02,22,18.90
2022,10,02,02,23,18.90
2022,10,02,02,24,18.90
2022,10,02,02,25,18.90
2022,10,02,02,26,19.00
2022,10,02,02,27,19.00
2022,10,02,02,28,19.00
2022,10,02,02,29,19.10
2022,10,02,02,30,19.10
2022,10,02,02,31,19.10
2022,10,02,02,32,19.10
2022,10,02,02,33,19.10
2022,10,02,02,34,19.20
2022,10,02,02,35,19.20
2022,10,02,02,36,19.20
2022,10,02,02,37,19.20
2022,10,02,02,38,19.20
2022,10,02,02,39,19.20
2022,10,02,02,40,19.30
2022,10,02,02,41,19.30
2022,10,02,02,42,19.30
2022,10,02,02,43,19.30
2022,10,02,02,44,19.30
2022,10,02,02,45,19.30
2022,10,02,02,46,19.30
2022,10,02,02,47,19.30
2022,10,02,02,48,19.30
2022,10,02,02,49,19.30
2022,10,02,02,50,19.30
2022,10,02,02,51,19.30
2022,10,02,02,52,19.30
2022,10,02,02,53,19.30
2022,10,02,02,54,19.30
2022,10,02,02,55,19.30
2022,10,02,02,56,19.30
2022,10,02,02,57,19.40
2022,10,02,02,58,19.30
2022,10,02,02,59,19.40
2022,10,02,03,00,19.40
2022,10,02,03,01,19.40
2022,10,02,03,02,19.40
2022,10,02,03,03,19.40
2022,10,02,03,04,19.40
2022,10,02,03,05,19.40
2022,10,02,03,06,19.40
2022,10,02,03,07,19.40
2022,10,02,03,08,19.30
2022,10,02,03,09,19.30
2022,10,02,03,10,19.30
2022,10,02,03,11,19.30
2022,10,02,03,12,19.30
2022,10,02,03,13,19.30
2022,10,02,03,14,19.30
2022,10,02,03,15,19.20
2022,10,02,03,16,19.20
2022,10,02,03,17,19.20
2022,10,02,03,18,19.20
2022,10,02,03,19,19.10
2022,10,02,03,20,19.10
2022,10,02,03,21,19.10
2022,10,02,03,22,19.10
2022,10,02,03,23,19.00
2022,10,02,03,24,19.00
2022,10,02,03,25,18.90
2022,10,02,03,26,18.90
2022,10,02,03,27,18.90
2022,10,02,03,28,18.80
2022,10,02,03,29,18.80
2022,10,02,03,30,18.80
2022,10,02,03,31,18.70
2022,10,02,03,32,18.70
2022,10,02,03,33,18.70
2022,10,02,03,34,18.60
2022,10,02,03,35,18.60
2022,10,02,03,36,18.60
2022,10,02,03,37,18.60
2022,10,02,03,38,18.60
2022,10,02,03,39,18.60
2022,10,02,03,40,18.50
2022,10,02,03,41,18.60
2022,10,02,03,42,18.60
2022,10,02,03,43,18.60
2022,10,02,03,44,18.60
2022,10,02,03,45,18.60
2022,10,02,03,46,18.60
2022,10,02,03,47,18.60
2022,10,02,03,48,18.60
2022,10,02,03,49,18.60
2022,10,02,03,50,18.60
2022,10,02,03,51,18.60
2022,10,02,03,52,18.60
2022,10,02,03,53,18.70
2022,10,02,03,54,18.60
2022,10,02,03,55,18.60
2022,10,02,03,56,18.60
2022,10,02,03,57,18.60
2022,10,02,03,58,18.70
2022,10,02,03,59,18.60
2022,10,02,04,00,18.70
2022,10,02,04,01,18.70
2022,10,02,04,02,18.70
2022,10,02,04,03,18.70
2022,10,02,04,04,18.70
2022,10,02,04,05,18.70
2022,10,02,04,06,18.70
2022,10,02,04,07,18.70
2022,10,02,04,08,18.70
2022,10,02,04,09,18.70
2022,10,02,04,10,18.60
2022,10,02,04,11,18.60
2022,10,02,04,12,18.60
2022,10,02,04,13,18.60
2022,10,02,04,14,18.60
2022,10,02,04,15,18.60
2022,10,02,04,16,18.60
2022,10,02,04,17,18.60
2022,10,02,04,18,18.60
2022,10,02,04,19,18.60
2022,10,02,04,20,18.60
2022,10,02,04,21,18.60
2022,10,02,04,22,18.60
2022,10,02,04,23,18.60
2022,10,02,04,24,18.60
2022,10,02,04,25,18.60
2022,10,02,04,26,18.60
2022,10,02,04,27,18.60
2022,10,02,04,28,18.60
2022,10,02,04,29,18.70
2022,10,02,04,30,18.70
2022,10,02,04,31,18.70
2022,10,02,04,32,18.70
2022,10,02,04,33,18.70
2022,10,02,04,34,18.60
2022,10,02,04,35,18.60
2022,10,02,04,36,18.60
2022,10,02,04,37,18.60
2022,10,02,04,38,18.60
2022,10,02,04,39,18.50
2022,10,02,04,40,18.50
2022,10,02,04,41,18.50
2022,10,02,04,42,18.40
2022,10,02,04,43,18.40
2022,10,02,04,44,18.40
2022,10,02,04,45,18.40
2022,10,02,04,46,18.40
2022,10,02,04,47,18.30
2022,10,02,04,48,18.30
2022,10,02,04,49,18.30
2022,10,02,04,50,18.30
2022,10,02,04,51,18.30
2022,10,02,04,52,18.20
2022,10,02,04,53,18.20
2022,10,02,04,54,18.20
2022,10,02,04,55,18.20
2022,10,02,04,56,18.20
2022,10,02,04,57,18.10
2022,10,02,04,58,18.10
2022,10,02,04,59,18.10
2022,10,02,05,00,18.00
2022,10,02,05,01,18.00
2022,10,02,05,02,18.00
2022,10,02,05,03,17.90
2022,10,02,05,04,17.90
2022,10,02,05,05,17.90
2022,10,02,05,06,17.90
2022,10,02,05,07,17.90
2022,10,02,05,08,17.90
2022,10,02,05,09,18.00
2022,10,02,05,10,18.00
2022,10,02,05,11,18.00
2022,10,02,05,12,18.00
2022,10,02,05,13,18.10
2022,10,02,05,14,18.10
2022,10,02,05,15,18.10
2022,10,02,05,16,18.00
2022,10,02,05,17,18.00
2022,10,02,05,18,18.10
2022,10,02,05,19,18.00
2022,10,02,05,20,18.10
2022,10,02,05,21,18.00
2022,10,02,05,22,18.00
2022,10,02,05,23,18.10
2022,10,02,05,24,18.10
2022,10,02,05,25,18.00
2022,10,02,05,26,18.00
2022,10,02,05,27,18.00
2022,10,02,05,28,18.00
2022,10,02,05,29,17.90
2022,10,02,05,30,17.90
2022,10,02,05,31,17.90
2022,10,02,05,32,17.90
2022,10,02,05,33,17.90
2022,10,02,05,34,17.90
2022,10,02,05,35,17.80
2022,10,02,05,36,17.80
2022,10,02,05,37,17.80
2022,10,02,05,38,17.80
2022,10,02,05,39,17.70
2022,10,02,05,40,17.70
2022,10,02,05,41,17.70
2022,10,02,05,42,17.70
2022,10,02,05,43,17.70
2022,10,02,05,44,17.70
2022,10,02,05,45,17.70
2022,10,02,05,46,17.70
2022,10,02,05,47,17.70
2022,10,02,05,48,17.70
2022,10,02,05,49,17.70
2022,10,02,05,50,17.70
2022,10,02,05,51,17.70
2022,10,02,05,52,17.60
2022,10,02,05,53,17.60
2022,10,02,05,54,17.60
2022,10,02,05,55,17.60
2022,10,02,05,56,17.60
2022,10,02,05,57,17.60
2022,10,02,05,58,17.50
2022,10,02,05,59,17.50
2022,10,02,06,00,17.50
2022,10,02,06,01,17.50
2022,10,02,06,02,17.40
2022,10,02,06,03,17.40
2022,10,02,06,04,17.40
2022,10,02,06,05,17.40
2022,10,02,06,06,17.40
2022,10,02,06,07,17.30
2022,10,02,06,08,17.30
2022,10,02,06,09,17.30
2022,10,02,06,10,17.30
2022,10,02,06,11,17.20
2022,10,02,06,12,17.20
2022,10,02,06,13,17.20
2022,10,02,06,14,17.20
2022,10,02,06,15,17.20
2022,10,02,06,16,17.20
2022,10,02,06,17,17.20
2022,10,02,06,18,17.20
2022,10,02,06,19,17.10
2022,10,02,06,20,17.10
2022,10,02,06,21,17.10
2022,10,02,06,22,17.10
2022,10,02,06,23,17.10
2022,10,02,06,24,17.10
2022,10,02,06,25,17.10
2022,10,02,06,26,17.10
2022,10,02,06,27,17.10
2022,10,02,06,28,17.00
2022,10,02,06,29,17.00
2022,10,02,06,30,17.00
2022,10,02,06,31,17.00
2022,10,02,06,32,17.00
2022,10,02,06,33,17.00
2022,10,02,06,34,17.00
2022,10,02,06,35,16.90
2022,10,02,06,36,16.90
2022,10,02,06,37,16.90
2022,10,02,06,38,16.90
2022,10,02,06,39,16.90
2022,10,02,06,40,16.90
2022,10,02,06,41,16.90
2022,10,02,06,42,16.90
2022,10,02,06,43,16.80
2022,10,02,06,44,16.80
2022,10,02,06,45,16.80
2022,10,02,06,46,16.80
2022,10,02,06,47,16.80
2022,10,02,06,48,16.80
2022,10,02,06,49,16.80
2022,10,02,06,50,16.80
2022,10,02,06,51,16.80
2022,10,02,06,52,16.80
2022,10,02,06,53,16.80
2022,10,02,06,54,16.80
2022,10,02,06,55,16.80
2022,10,02,06,56,16.70
2022,10,02,06,57,16.70
2022,10,02,06,58,16.70
2022,10,02,06,59,16.70
2022,10,02,07,00,16.70
2022,10,02,07,01,16.70
2022,10,02,07,02,16.70
2022,10,02,07,03,16.70
2022,10,02,07,04,16.70
2022,10,02,07,05,16.70
2022,10,02,07,06,16.80
2022,10,02,07,07,16.80
2022,10,02,07,08,16.80
2022,10,02,07,09,16.80
2022,10,02,07,10,16.80
2022,10,02,07,11,16.80
2022,10,02,07,12,16.80
2022,10,02,07,13,16.80
2022,10,02,07,14,16.80
2022,10,02,07,15,16.80
2022,10,02,07,16,16.80
2022,10,02,07,17,16.80
2022,10,02,07,18,16.80
2022,10,02,07,19,16.80
2022,10,02,07,20,16.80
2022,10,02,07,21,16.80
2022,10,02,07,22,16.70
2022,10,02,07,23,16.70
2022,10,02,07,24,16.70
2022,10,02,07,25,16.70
2022,10,02,07,26,16.70
2022,10,02,07,27,16.70
2022,10,02,07,28,16.60
2022,10,02,07,29,16.60
2022,10,02,07,30,16.60
2022,10,02,07,31,16.60
2022,10,02,07,32,16.70
2022,10,02,07,33,16.70
2022,10,02,07,34,16.70
2022,10,02,07,35,16.80
2022,10,02,07,36,16.80
2022,10,02,07,37,16.80
2022,10,02,07,38,16.70
2022,10,02,07,39,16.70
2022,10,02,07,40,16.70
2022,10,02,07,41,16.70
2022,10,02,07,42,16.70
2022,10,02,07,43,16.70
2022,10,02,07,44,16.70
2022,10,02,07,45,16.70
2022,10,02,07,46,16.70
2022,10,02,07,47,16.80
2022,10,02,07,48,16.80
2022,10,02,07,49,16.80
2022,10,02,07,50,16.80
2022,10,02,07,51,16.80
2022,10,02,07,52,16.70
2022,10,02,07,53,16.70
2022,10,02,07,54,16.70
2022,10,02,07,55,16.70
2022,10,02,07,56,16.70
2022,10,02,07,57,16.70
2022,10,02,07,58,16.60
2022,10,02,07,59,16.60
2022,10,02,08,00,16.60
2022,10,02,08,01,16.60
2022,10,02,08,02,16.60
2022,10,02,08,03,16.60
2022,10,02,08,04,16.60
2022,10,02,08,05,16.70
2022,10,02,08,06,16.70
2022,10,02,08,07,16.70
2022,10,02,08,08,16.70
2022,10,02,08,09,16.70
2022,10,02,08,10,16.70
2022,10,02,08,11,16.80
2022,10,02,08,12,16.80
2022,10,02,08,13,16.90
2022,10,02,08,14,16.90
2022,10,02,08,15,16.90
2022,10,02,08,16,16.90
2022,10,02,08,17,16.90
2022,10,02,08,18,16.90
2022,10,02,08,19,17.00
2022,10,02,08,20,17.00
2022,10,02,08,21,17.00
2022,10,02,08,22,17.00
2022,10,02,08,23,17.00
2022,10,02,08,24,17.00
2022,10,02,08,25,17.00
2022,10,02,08,26,17.00
2022,10,02,08,27,17.00
2022,10,02,08,28,17.00
2022,10,02,08,29,17.00
2022,10,02,08,30,17.10
2022,10,02,08,31,17.00
2022,10,02,08,32,17.10
2022,10,02,08,33,17.10
2022,10,02,08,34,17.10
2022,10,02,08,35,17.20
2022,10,02,08,36,17.20
2022,10,02,08,37,17.20
2022,10,02,08,38,17.30
2022,10,02,08,39,17.30
2022,10,02,08,40,17.30
2022,10,02,08,41,17.30
2022,10,02,08,42,17.30
2022,10,02,08,43,17.30
2022,10,02,08,44,17.40
2022,10,02,08,45,17.30
2022,10,02,08,46,17.40
2022,10,02,08,47,17.40
2022,10,02,08,48,17.40
2022,10,02,08,49,17.40
2022,10,02,08,50,17.50
2022,10,02,08,51,17.50
2022,10,02,08,52,17.60
2022,10,02,08,53,17.60
2022,10,02,08,54,17.60
2022,10,02,08,55,17.60
2022,10,02,08,56,17.60
2022,10,02,08,57,17.60
2022,10,02,08,58,17.70
2022,10,02,08,59,17.70
2022,10,02,09,00,17.70
2022,10,02,09,01,17.80
2022,10,02,09,02,17.80
2022,10,02,09,03,17.80
2022,10,02,09,04,17.80
2022,10,02,09,05,17.80
2022,10,02,09,06,17.90
2022,10,02,09,07,17.90
2022,10,02,09,08,17.90
2022,10,02,09,09,17.90
2022,10,02,09,10,17.90
2022,10,02,09,11,17.90
2022,10,02,09,12,17.90
2022,10,02,09,13,17.90
2022,10,02,09,14,17.90
2022,10,02,09,15,17.90
2022,10,02,09,16,17.90
2022,10,02,09,17,17.90
2022,10,02,09,18,17.90
2022,10,02,09,19,17.90
2022,10,02,09,20,17.90
2022,10,02,09,21,17.90
2022,10,02,09,22,17.90
2022,10,02,09,23,17.90
2022,10,02,09,24,18.00
2022,10,02,09,25,18.00
2022,10,02,09,26,18.10
2022,10,02,09,27,18.10
2022,10,02,09,28,18.20
2022,10,02,09,29,18.20
2022,10,02,09,30,18.30
2022,10,02,09,31,18.30
2022,10,02,09,32,18.40
2022,10,02,09,33,18.40
2022,10,02,09,34,18.50
2022,10,02,09,35,18.50
2022,10,02,09,36,18.60
2022,10,02,09,37,18.60
2022,10,02,09,38,18.60
2022,10,02,09,39,18.70
2022,10,02,09,40,18.70
2022,10,02,09,41,18.80
2022,10,02,09,42,18.80
2022,10,02,09,43,18.80
2022,10,02,09,44,18.90
2022,10,02,09,45,18.90
2022,10,02,09,46,18.90
2022,10,02,09,47,19.00
2022,10,02,09,48,19.00
2022,10,02,09,49,19.10
2022,10,02,09,50,19.10
2022,10,02,09,51,19.10
2022,10,02,09,52,19.20
2022,10,02,09,53,19.20
2022,10,02,09,54,19.30
2022,10,02,09,55,19.30
2022,10,02,09,56,19.30
2022,10,02,09,57,19.40
2022,10,02,09,58,19.40
2022,10,02,09,59,19.40
2022,10,02,10,00,19.40
2022,10,02,10,01,19.50
2022,10,02,10,02,19.50
2022,10,02,10,03,19.60
2022,10,02,10,04,19.60
2022,10,02,10,05,19.60
2022,10,02,10,06,19.60
2022,10,02,10,07,19.70
2022,10,02,10,08,19.70
2022,10,02,10,09,19.70
2022,10,02,10,10,19.70
2022,10,02,10,11,19.80
2022,10,02,10,12,19.80
2022,10,02,10,13,19.80
2022,10,02,10,14,19.90
2022,10,02,10,15,19.90
2022,10,02,10,16,19.90
2022,10,02,10,17,19.90
2022,10,02,10,18,20.00
2022,10,02,10,19,20.00
2022,10,02,10,20,20.00
2022,10,02,10,21,20.10
2022,10,02,10,22,20.10
2022,10,02,10,23,20.10
2022,10,02,10,24,20.10
2022,10,02,10,25,20.10
2022,10,02,10,26,20.10
2022,10,02,10,27,20.10
2022,10,02,10,28,20.20
2022,10,02,10,29,20.20
2022,10,02,10,30,20.20
2022,10,02,10,31,20.30
2022,10,02,10,32,20.30
2022,10,02,10,33,20.30
2022,10,02,10,34,20.30
2022,10,02,10,35,20.40
2022,10,02,10,36,20.40
2022,10,02,10,37,20.40
2022,10,02,10,38,20.50
2022,10,02,10,39,20.60
2022,10,02,10,40,20.60
2022,10,02,10,41,20.70
2022,10,02,10,42,20.70
2022,10,02,10,43,20.80
2022,10,02,10,44,20.90
2022,10,02,10,45,20.90
2022,10,02,10,46,20.90
2022,10,02,10,47,20.90
2022,10,02,10,48,21.00
2022,10,02,10,49,21.00
2022,10,02,10,50,21.00
2022,10,02,10,51,21.10
2022,10,02,10,52,21.10
2022,10,02,10,53,21.10
2022,10,02,10,54,21.20
2022,10,02,10,55,21.20
2022,10,02,10,56,21.30
2022,10,02,10,57,21.30
2022,10,02,10,58,21.30
2022,10,02,10,59,21.30
2022,10,02,11,00,21.40
2022,10,02,11,01,21.40
2022,10,02,11,02,21.40
2022,10,02,11,03,21.40
2022,10,02,11,04,21.50
2022,10,02,11,05,21.50
2022,10,02,11,06,21.50
2022,10,02,11,07,21.50
2022,10,02,11,08,21.50
2022,10,02,11,09,21.50
2022,10,02,11,10,21.60
2022,10,02,11,11,21.60
2022,10,02,11,12,21.60
2022,10,02,11,13,21.70
2022,10,02,11,14,21.70
2022,10,02,11,15,21.70
2022,10,02,11,16,21.70
2022,10,02,11,17,21.70
2022,10,02,11,18,21.80
2022,10,02,11,19,21.80
2022,10,02,11,20,21.80
2022,10,02,11,21,21.80
2022,10,02,11,22,21.80
2022,10,02,11,23,21.80
2022,10,02,11,24,21.90
2022,10,02,11,25,21.90
2022,10,02,11,26,21.80
2022,10,02,11,27,21.80
2022,10,02,11,28,21.90
2022,10,02,11,29,21.90
2022,10,02,11,30,21.90
2022,10,02,11,31,21.90
2022,10,02,11,32,21.90
2022,10,02,11,33,21.90
2022,10,02,11,34,21.90
2022,10,02,11,35,21.90
2022,10,02,11,36,21.90
2022,10,02,11,37,21.80
2022,10,02,11,38,21.80
2022,10,02,11,39,21.80
2022,10,02,11,40,21.90
2022,10,02,11,41,21.90
2022,10,02,11,42,21.90
2022,10,02,11,43,22.00
2022,10,02,11,44,22.00
2022,10,02,11,45,22.00
2022,10,02,11,46,22.00
2022,10,02,11,47,22.00
2022,10,02,11,48,22.10
2022,10,02,11,49,22.10
2022,10,02,11,50,22.10
2022,10,02,11,51,22.20
2022,10,02,11,52,22.20
2022,10,02,11,53,22.20
2022,10,02,11,54,22.20
2022,10,02,11,55,22.20
2022,10,02,11,56,22.30
2022,10,02,11,57,22.30
2022,10,02,11,58,22.40
2022,10,02,11,59,22.40
2022,10,02,12,00,22.50
2022,10,02,12,01,22.60
2022,10,02,12,02,22.60
2022,10,02,12,03,22.60
2022,10,02,12,04,22.60
2022,10,02,12,05,22.60
2022,10,02,12,06,22.60
2022,10,02,12,07,22.60
2022,10,02,12,08,22.70
2022,10,02,12,09,22.70
2022,10,02,12,10,22.80
2022,10,02,12,11,22.80
2022,10,02,12,12,22.80
2022,10,02,12,13,22.90
2022,10,02,12,14,22.90
2022,10,02,12,15,23.00
2022,10,02,12,16,23.00
2022,10,02,12,17,23.00
2022,10,02,12,18,23.00
2022,10,02,12,19,23.00
2022,10,02,12,20,23.00
2022,10,02,12,21,23.00
2022,10,02,12,22,23.00
2022,10,02,12,23,23.00
2022,10,02,12,24,23.00
2022,10,02,12,25,23.10
2022,10,02,12,26,23.10
2022,10,02,12,27,23.20
2022,10,02,12,28,23.20
2022,10,02,12,29,23.30
2022,10,02,12,30,23.30
2022,10,02,12,31,23.30
2022,10,02,12,32,23.40
2022,10,02,12,33,23.40
2022,10,02,12,34,23.40
2022,10,02,12,35,23.50
2022,10,02,12,36,23.60
2022,10,02,12,37,23.60
2022,10,02,12,38,23.60
2022,10,02,12,39,23.60
2022,10,02,12,40,23.60
2022,10,02,12,41,23.70
2022,10,02,12,42,23.70
2022,10,02,12,43,23.70
2022,10,02,12,44,23.70
2022,10,02,12,45,23.60
2022,10,02,12,46,23.60
2022,10,02,12,47,23.50
2022,10,02,12,48,23.40
2022,10,02,12,49,23.30
2022,10,02,12,50,23.40
2022,10,02,12,51,23.40
2022,10,02,12,52,23.50
2022,10,02,12,53,23.50
2022,10,02,12,54,23.50
2022,10,02,12,55,23.50
2022,10,02,12,56,23.60
2022,10,02,12,57,23.60
2022,10,02,12,58,23.60
2022,10,02,12,59,23.60
2022,10,02,13,00,23.60
2022,10,02,13,01,23.60
2022,10,02,13,02,23.60
2022,10,02,13,03,23.60
2022,10,02,13,04,23.60
2022,10,02,13,05,23.70
2022,10,02,13,06,23.70
2022,10,02,13,07,23.70
2022,10,02,13,08,23.70
2022,10,02,13,09,23.80
2022,10,02,13,10,23.80
2022,10,02,13,11,23.80
2022,10,02,13,12,23.90
2022,10,02,13,13,23.90
2022,10,02,13,14,24.00
2022,10,02,13,15,24.00
2022,10,02,13,16,23.90
2022,10,02,13,17,23.90
2022,10,02,13,18,23.90
2022,10,02,13,19,23.80
2022,10,02,13,20,23.80
2022,10,02,13,21,23.80
2022,10,02,13,22,23.80
2022,10,02,13,23,23.80
2022,10,02,13,24,23.80
2022,10,02,13,25,23.80
2022,10,02,13,26,23.80
2022,10,02,13,27,23.80
2022,10,02,13,28,23.90
2022,10,02,13,29,23.90
2022,10,02,13,30,24.00
2022,10,02,13,31,24.10
2022,10,02,13,32,24.20
2022,10,02,13,33,24.20
2022,10,02,13,34,24.30
2022,10,02,13,35,24.30
2022,10,02,13,36,24.30
2022,10,02,13,37,24.40
2022,10,02,13,38,24.40
2022,10,02,13,39,24.40
2022,10,02,13,40,24.40
2022,10,02,13,41,24.50
2022,10,02,13,42,24.50
2022,10,02,13,43,24.50
2022,10,02,13,44,24.50
2022,10,02,13,45,24.50
2022,10,02,13,46,24.40
2022,10,02,13,47,24.40
2022,10,02,13,48,24.40
2022,10,02,13,49,24.40
2022,10,02,13,50,24.50
2022,10,02,13,51,24.50
2022,10,02,13,52,24.50
2022,10,02,13,53,24.40
2022,10,02,13,54,24.40
2022,10,02,13,55,24.40
2022,10,02,13,56,24.40
2022,10,02,13,57,24.50
2022,10,02,13,58,24.50
2022,10,02,13,59,24.50
2022,10,02,14,00,24.60
2022,10,02,14,01,24.60
2022,10,02,14,02,24.60
2022,10,02,14,03,24.60
2022,10,02,14,04,24.60
2022,10,02,14,05,24.60
2022,10,02,14,06,24.70
2022,10,02,14,07,24.70
2022,10,02,14,08,24.70
2022,10,02,14,09,24.80
2022,10,02,14,10,24.80
2022,10,02,14,11,24.80
2022,10,02,14,12,24.90
2022,10,02,14,13,24.90
2022,10,02,14,14,24.90
2022,10,02,14,15,24.80
2022,10,02,14,16,24.80
2022,10,02,14,17,24.80
2022,10,02,14,18,24.80
2022,10,02,14,19,24.80
2022,10,02,14,20,24.80
2022,10,02,14,21,24.90
2022,10,02,14,22,24.90
2022,10,02,14,23,24.90
2022,10,02,14,24,24.90
2022,10,02,14,25,24.90
2022,10,02,14,26,24.90
2022,10,02,14,27,25.00
2022,10,02,14,28,25.00
2022,10,02,14,29,25.00
2022,10,02,14,30,25.00
2022,10,02,14,31,25.10
2022,10,02,14,32,25.10
2022,10,02,14,33,25.00
2022,10,02,14,34,25.00
2022,10,02,14,35,25.00
2022,10,02,14,36,25.00
2022,10,02,14,37,24.90
2022,10,02,14,38,24.90
2022,10,02,14,39,25.00
2022,10,02,14,40,25.00
2022,10,02,14,41,25.00
2022,10,02,14,42,25.00
2022,10,02,14,43,25.00
2022,10,02,14,44,25.10
2022,10,02,14,45,25.10
2022,10,02,14,46,25.20
2022,10,02,14,47,25.20
2022,10,02,14,48,25.20
2022,10,02,14,49,25.30
2022,10,02,14,50,25.30
2022,10,02,14,51,25.30
2022,10,02,14,52,25.40
2022,10,02,14,53,25.40
2022,10,02,14,54,25.40
2022,10,02,14,55,25.40
2022,10,02,14,56,25.40
2022,10,02,14,57,25.40
2022,10,02,14,58,25.40
2022,10,02,14,59,25.40
2022,10,02,15,00,25.40
2022,10,02,15,01,25.40
2022,10,02,15,02,25.40
2022,10,02,15,03,25.50
2022,10,02,15,04,25.60
2022,10,02,15,05,25.60
2022,10,02,15,06,25.60
2022,10,02,15,07,25.70
2022,10,02,15,08,25.70
2022,10,02,15,09,25.70
2022,10,02,15,10,25.60
2022,10,02,15,11,25.60
2022,10,02,15,12,25.50
2022,10,02,15,13,25.40
2022,10,02,15,14,25.40
2022,10,02,15,15,25.40
2022,10,02,15,16,25.40
2022,10,02,15,17,25.40
2022,10,02,15,18,25.40
2022,10,02,15,19,25.40
2022,10,02,15,20,25.40
2022,10,02,15,21,25.40
2022,10,02,15,22,25.50
2022,10,02,15,23,25.50
2022,10,02,15,24,25.50
2022,10,02,15,25,25.60
2022,10,02,15,26,25.60
2022,10,02,15,27,25.60
2022,10,02,15,28,25.60
2022,10,02,15,29,25.60
2022,10,02,15,30,25.60
2022,10,02,15,31,25.70
2022,10,02,15,32,25.70
2022,10,02,15,33,25.70
2022,10,02,15,34,25.70
2022,10,02,15,35,25.70
2022,10,02,15,36,25.70
2022,10,02,15,37,25.70
2022,10,02,15,38,25.70
2022,10,02,15,39,25.60
2022,10,02,15,40,25.60
2022,10,02,15,41,25.60
2022,10,02,15,42,25.60
2022,10,02,15,43,25.60
2022,10,02,15,44,25.60
2022,10,02,15,45,25.50
2022,10,02,15,46,25.50
2022,10,02,15,47,25.50
2022,10,02,15,48,25.50
2022,10,02,15,49,25.50
2022,10,02,15,50,25.60
2022,10,02,15,51,25.60
2022,10,02,15,52,25.50
2022,10,02,15,53,25.50
2022,10,02,15,54,25.50
2022,10,02,15,55,25.60
2022,10,02,15,56,25.60
2022,10,02,15,57,25.60
2022,10,02,15,58,25.70
2022,10,02,15,59,25.70
2022,10,02,16,00,25.70
2022,10,02,16,01,25.70
2022,10,02,16,02,25.70
2022,10,02,16,03,25.70
2022,10,02,16,04,25.70
2022,10,02,16,05,25.70
2022,10,02,16,06,25.70
2022,10,02,16,07,25.70
2022,10,02,16,08,25.70
2022,10,02,16,09,25.60
2022,10,02,16,10,25.60
2022,10,02,16,11,25.60
2022,10,02,16,12,25.60
2022,10,02,16,13,25.50
2022,10,02,16,14,25.50
2022,10,02,16,15,25.40
2022,10,02,16,16,25.40
2022,10,02,16,17,25.40
2022,10,02,16,18,25.40
2022,10,02,16,19,25.30
2022,10,02,16,20,25.30
2022,10,02,16,21,25.30
2022,10,02,16,22,25.30
2022,10,02,16,23,25.30
2022,10,02,16,24,25.30
2022,10,02,16,25,25.30
2022,10,02,16,26,25.20
2022,10,02,16,27,25.20
2022,10,02,16,28,25.20
2022,10,02,16,29,25.20
2022,10,02,16,30,25.10
2022,10,02,16,31,25.10
2022,10,02,16,32,25.10
2022,10,02,16,33,25.00
2022,10,02,16,34,25.00
2022,10,02,16,35,25.00
2022,10,02,16,36,25.00
2022,10,02,16,37,24.90
2022,10,02,16,38,24.90
2022,10,02,16,39,24.90
2022,10,02,16,40,24.80
2022,10,02,16,41,24.80
2022,10,02,16,42,24.80
2022,10,02,16,43,24.80
2022,10,02,16,44,24.70
2022,10,02,16,45,24.70
2022,10,02,16,46,24.70
2022,10,02,16,47,24.70
2022,10,02,16,48,24.70
2022,10,02,16,49,24.60
2022,10,02,16,50,24.60
2022,10,02,16,51,24.60
2022,10,02,16,52,24.60
2022,10,02,16,53,24.60
2022,10,02,16,54,24.60
2022,10,02,16,55,24.60
2022,10,02,16,56,24.50
2022,10,02,16,57,24.50
2022,10,02,16,58,24.50
2022,10,02,16,59,24.50
2022,10,02,17,00,24.50
2022,10,02,17,01,24.40
2022,10,02,17,02,24.40
2022,10,02,17,03,24.40
2022,10,02,17,04,24.40
2022,10,02,17,05,24.30
2022,10,02,17,06,24.30
2022,10,02,17,07,24.30
2022,10,02,17,08,24.30
2022,10,02,17,09,24.30
2022,10,02,17,10,24.30
2022,10,02,17,11,24.30
2022,10,02,17,12,24.30
2022,10,02,17,13,24.20
2022,10,02,17,14,24.20
2022,10,02,17,15,24.20
2022,10,02,17,16,24.20
2022,10,02,17,17,24.20
2022,10,02,17,18,24.10
2022,10,02,17,19,24.10